27-09-2022, 00:00:09,    301,    0.3,    7.7,   0.00,   0.00, 1002.3,   77.0, -999.0
27-09-2022, 00:00:19,    287,    1.7,    7.7,   0.00,   0.00, 1002.4,   77.1, -999.0
27-09-2022, 00:00:29,    291,    0.8,    7.7,   0.00,   0.00, 1002.3,   77.1, -999.0
27-09-2022, 00:00:39,    272,    2.5,    7.7,   0.00,   0.00, 1002.3,   77.1, -999.0
27-09-2022, 00:00:49,    315,    2.2,    7.7,   0.00,   0.00, 1002.3,   77.2, -999.0
27-09-2022, 00:00:59,    331,    1.7,    7.6,   0.00,   0.00, 1002.3,   77.2, -999.0
27-09-2022, 00:01:09,    296,    0.4,    7.7,   0.00,   0.00, 1002.3,   77.1, -999.0
27-09-2022, 00:01:18,    317,    0.5,    7.7,   0.00,   0.00, 1002.3,   77.0, -999.0
27-09-2022, 00:01:29,    284,    1.0,    7.7,   0.00,   0.00, 1002.3,   77.1, -999.0
27-09-2022, 00:01:39,    291,    2.2,    7.7,   0.00,   0.00, 1002.3,   77.1, -999.0
27-09-2022, 00:01:48,    315,    1.9,    7.7,   0.00,   0.00, 1002.3,   77.2, -999.0
27-09-2022, 00:01:58,    316,    1.9,    7.7,   0.00,   0.00, 1002.4,   77.2, -999.0
27-09-2022, 00:02:09,    318,    0.8,    7.7,   0.00,   0.00, 1002.3,   77.1, -999.0
27-09-2022, 00:02:18,    300,    2.1,    7.7,   0.00,   0.00, 1002.3,   77.3, -999.0
27-09-2022, 00:02:28,    300,    1.2,    7.7,   0.00,   0.00, 1002.3,   77.3, -999.0
27-09-2022, 00:02:39,    317,    1.4,    7.7,   0.00,   0.00, 1002.3,   77.3, -999.0
27-09-2022, 00:02:50,    312,    1.0,    7.6,   0.00,   0.00, 1002.3,   77.2, -999.0
27-09-2022, 00:02:58,    271,    0.4,    7.6,   0.00,   0.00, 1002.3,   77.2, -999.0
27-09-2022, 00:03:08,    273,    1.1,    7.6,   0.00,   0.00, 1002.3,   77.3, -999.0
27-09-2022, 00:03:18,    274,    0.8,    7.6,   0.00,   0.00, 1002.3,   77.3, -999.0
27-09-2022, 00:03:28,    278,    0.6,    7.6,   0.00,   0.00, 1002.3,   77.3, -999.0
27-09-2022, 00:03:38,    279,    0.5,    7.6,   0.00,   0.00, 1002.3,   77.3, -999.0
27-09-2022, 00:03:48,    281,    0.7,    7.6,   0.00,   0.00, 1002.3,   77.3, -999.0
27-09-2022, 00:03:58,    282,    0.2,    7.6,   0.00,   0.00, 1002.2,   77.2, -999.0
27-09-2022, 00:04:08,    296,    0.2,    7.6,   0.00,   0.00, 1002.3,   77.2, -999.0
27-09-2022, 00:04:18,    290,    0.5,    7.6,   0.00,   0.00, 1002.3,   77.2, -999.0
27-09-2022, 00:04:28,    289,    0.2,    7.6,   0.00,   0.00, 1002.3,   77.2, -999.0
27-09-2022, 00:04:38,    289,    0.0,    7.6,   0.00,   0.00, 1002.2,   77.1, -999.0
27-09-2022, 00:04:48,    296,    0.5,    7.7,   0.00,   0.00, 1002.3,   77.3, -999.0
27-09-2022, 00:04:57,    257,    1.8,    7.7,   0.00,   0.00, 1002.3,   77.3, -999.0
27-09-2022, 00:05:08,    285,    0.7,    7.6,   0.00,   0.00, 1002.3,   77.2, -999.0
27-09-2022, 00:05:17,    307,    1.0,    7.7,   0.00,   0.00, 1002.3,   77.2, -999.0
27-09-2022, 00:05:27,    323,    1.2,    7.6,   0.00,   0.00, 1002.3,   77.1, -999.0
27-09-2022, 00:05:37,    310,    3.0,    7.6,   0.00,   0.00, 1002.3,   77.0, -999.0
27-09-2022, 00:05:47,    269,    0.6,    7.7,   0.00,   0.00, 1002.3,   77.0, -999.0
27-09-2022, 00:05:57,    274,    0.1,    7.6,   0.00,   0.00, 1002.3,   76.8, -999.0
27-09-2022, 00:06:07,    311,    1.0,    7.7,   0.00,   0.00, 1002.3,   77.0, -999.0
27-09-2022, 00:06:17,    302,    1.2,    7.7,   0.00,   0.00, 1002.3,   76.9, -999.0
27-09-2022, 00:06:27,    319,    4.0,    7.5,   0.00,   0.00, 1002.3,   76.9, -999.0
27-09-2022, 00:06:37,    291,    2.4,    7.6,   0.00,   0.00, 1002.3,   76.8, -999.0
27-09-2022, 00:06:47,    243,    0.6,    7.6,   0.00,   0.00, 1002.3,   76.8, -999.0
27-09-2022, 00:06:57,    243,    0.1,    7.6,   0.00,   0.00, 1002.3,   76.7, -999.0
27-09-2022, 00:07:07,    319,    0.4,    7.7,   0.00,   0.00, 1002.3,   76.8, -999.0
27-09-2022, 00:07:17,    310,    0.5,    7.6,   0.00,   0.00, 1002.3,   76.8, -999.0
27-09-2022, 00:07:27,    301,    1.6,    7.7,   0.00,   0.00, 1002.3,   76.8, -999.0
27-09-2022, 00:07:37,    291,    2.8,    7.7,   0.00,   0.00, 1002.3,   76.8, -999.0
27-09-2022, 00:07:47,    280,    0.9,    7.7,   0.00,   0.00, 1002.3,   76.8, -999.0
27-09-2022, 00:07:57,    280,    1.4,    7.7,   0.00,   0.00, 1002.3,   76.7, -999.0
27-09-2022, 00:08:06,    280,    1.0,    7.6,   0.00,   0.00, 1002.3,   76.8, -999.0
27-09-2022, 00:08:17,    287,    2.1,    7.6,   0.00,   0.00, 1002.3,   76.8, -999.0
27-09-2022, 00:08:26,    300,    1.3,    7.6,   0.00,   0.00, 1002.3,   76.7, -999.0
27-09-2022, 00:08:36,    291,    2.8,    7.7,   0.00,   0.00, 1002.3,   76.9, -999.0
27-09-2022, 00:08:46,    291,    1.7,    7.7,   0.00,   0.00, 1002.3,   76.8, -999.0
27-09-2022, 00:08:56,    292,    0.4,    7.6,   0.00,   0.00, 1002.3,   76.8, -999.0
27-09-2022, 00:09:06,    292,    0.0,    7.5,   0.00,   0.00, 1002.2,   76.4, -999.0
27-09-2022, 00:09:16,    289,    0.2,    7.5,   0.00,   0.00, 1002.2,   76.4, -999.0
27-09-2022, 00:09:26,    294,    2.7,    7.6,   0.00,   0.00, 1002.4,   76.8, -999.0
27-09-2022, 00:09:36,    285,    3.4,    7.6,   0.00,   0.00, 1002.3,   76.8, -999.0
27-09-2022, 00:09:46,    283,    2.6,    7.6,   0.00,   0.00, 1002.3,   76.7, -999.0
27-09-2022, 00:09:56,    306,    2.8,    7.6,   0.00,   0.00, 1002.3,   76.8, -999.0
27-09-2022, 00:10:06,    315,    1.2,    7.6,   0.00,   0.00, 1002.3,   76.8, -999.0
27-09-2022, 00:10:16,    288,    0.6,    7.7,   0.00,   0.00, 1002.3,   76.8, -999.0
27-09-2022, 00:10:26,    321,    2.7,    7.7,   0.00,   0.00, 1002.3,   76.8, -999.0
27-09-2022, 00:10:36,    292,    1.4,    7.7,   0.00,   0.00, 1002.3,   76.8, -999.0
27-09-2022, 00:10:46,    296,    1.4,    7.6,   0.00,   0.00, 1002.3,   76.8, -999.0
27-09-2022, 00:10:56,    287,    0.7,    7.5,   0.00,   0.00, 1002.3,   76.8, -999.0
27-09-2022, 00:11:06,    288,    0.4,    7.5,   0.00,   0.00, 1002.3,   76.8, -999.0
27-09-2022, 00:11:15,    285,    1.8,    7.6,   0.00,   0.00, 1002.3,   76.8, -999.0
27-09-2022, 00:11:26,    278,    2.5,    7.6,   0.00,   0.00, 1002.3,   76.9, -999.0
27-09-2022, 00:11:35,    285,    1.4,    7.6,   0.00,   0.00, 1002.3,   76.8, -999.0
27-09-2022, 00:11:45,    302,    1.2,    7.6,   0.00,   0.00, 1002.3,   76.8, -999.0
27-09-2022, 00:11:56,    301,    0.3,    7.6,   0.00,   0.00, 1002.3,   76.7, -999.0
27-09-2022, 00:12:05,    302,    0.5,    7.6,   0.00,   0.00, 1002.3,   76.7, -999.0
27-09-2022, 00:12:15,    288,    1.0,    7.6,   0.00,   0.00, 1002.3,   76.8, -999.0
27-09-2022, 00:12:25,    321,    1.6,    7.6,   0.00,   0.00, 1002.3,   76.7, -999.0
27-09-2022, 00:12:35,    304,    2.3,    7.5,   0.00,   0.00, 1002.3,   76.8, -999.0
27-09-2022, 00:12:45,    342,    3.5,    7.5,   0.00,   0.00, 1002.3,   76.9, -999.0
27-09-2022, 00:12:55,    299,    2.4,    7.6,   0.00,   0.00, 1002.3,   76.9, -999.0
27-09-2022, 00:13:05,    316,    1.9,    7.7,   0.00,   0.00, 1002.3,   76.8, -999.0
27-09-2022, 00:13:15,    306,    1.6,    7.6,   0.00,   0.00, 1002.3,   76.8, -999.0
27-09-2022, 00:13:25,    304,    2.1,    7.6,   0.00,   0.00, 1002.3,   76.9, -999.0
27-09-2022, 00:13:35,    280,    1.3,    7.7,   0.00,   0.00, 1002.3,   76.8, -999.0
27-09-2022, 00:13:45,    280,    0.7,    7.6,   0.00,   0.00, 1002.3,   76.8, -999.0
27-09-2022, 00:13:55,    317,    0.6,    7.6,   0.00,   0.00, 1002.3,   76.7, -999.0
27-09-2022, 00:14:05,    292,    1.0,    7.6,   0.00,   0.00, 1002.3,   76.8, -999.0
27-09-2022, 00:14:15,    292,    0.1,    7.6,   0.00,   0.00, 1002.2,   76.5, -999.0
27-09-2022, 00:14:25,    295,    0.4,    7.6,   0.00,   0.00, 1002.3,   76.7, -999.0
27-09-2022, 00:14:34,    296,    0.9,    7.6,   0.00,   0.00, 1002.3,   76.7, -999.0
27-09-2022, 00:14:45,    295,    0.2,    7.5,   0.00,   0.00, 1002.2,   76.6, -999.0
27-09-2022, 00:14:55,    297,    0.4,    7.6,   0.00,   0.00, 1002.3,   76.7, -999.0
27-09-2022, 00:15:04,    331,    2.2,    7.6,   0.00,   0.00, 1002.4,   76.7, -999.0
27-09-2022, 00:15:14,    302,    3.8,    7.6,   0.00,   0.00, 1002.3,   76.7, -999.0
27-09-2022, 00:15:24,    313,    3.6,    7.7,   0.00,   0.00, 1002.3,   76.7, -999.0
27-09-2022, 00:15:34,    324,    1.9,    7.6,   0.00,   0.00, 1002.3,   76.7, -999.0
27-09-2022, 00:15:44,    303,    1.8,    7.6,   0.00,   0.00, 1002.3,   76.6, -999.0
27-09-2022, 00:15:54,    256,    1.9,    7.7,   0.00,   0.00, 1002.3,   76.5, -999.0
27-09-2022, 00:16:04,    300,    1.5,    7.7,   0.00,   0.00, 1002.3,   76.5, -999.0
27-09-2022, 00:16:14,    325,    2.3,    7.7,   0.00,   0.00, 1002.3,   76.5, -999.0
27-09-2022, 00:16:24,    209,    2.1,    7.6,   0.00,   0.00, 1002.3,   76.5, -999.0
27-09-2022, 00:16:34,    295,    1.5,    7.6,   0.00,   0.00, 1002.3,   76.5, -999.0
27-09-2022, 00:16:44,    246,    2.9,    7.6,   0.00,   0.00, 1002.3,   76.5, -999.0
27-09-2022, 00:16:54,    303,    1.9,    7.6,   0.00,   0.00, 1002.3,   76.5, -999.0
27-09-2022, 00:17:04,    281,    3.4,    7.5,   0.00,   0.00, 1002.3,   76.5, -999.0
27-09-2022, 00:17:14,    296,    2.8,    7.6,   0.00,   0.00, 1002.3,   76.5, -999.0
27-09-2022, 00:17:24,    292,    3.4,    7.7,   0.00,   0.00, 1002.3,   76.5, -999.0
27-09-2022, 00:17:34,    260,    1.1,    7.7,   0.00,   0.00, 1002.3,   76.5, -999.0
27-09-2022, 00:17:43,    260,    1.8,    7.6,   0.00,   0.00, 1002.3,   76.5, -999.0
27-09-2022, 00:17:54,    289,    2.9,    7.6,   0.00,   0.00, 1002.3,   76.4, -999.0
27-09-2022, 00:18:04,    307,    1.6,    7.6,   0.00,   0.00, 1002.3,   76.5, -999.0
27-09-2022, 00:18:13,    301,    0.5,    7.7,   0.00,   0.00, 1002.3,   76.2, -999.0
27-09-2022, 00:18:23,    270,    0.9,    7.6,   0.00,   0.00, 1002.3,   76.4, -999.0
27-09-2022, 00:18:33,    265,    1.1,    7.6,   0.00,   0.00, 1002.3,   76.5, -999.0
27-09-2022, 00:18:43,    285,    3.3,    7.6,   0.00,   0.00, 1002.3,   76.4, -999.0
27-09-2022, 00:18:53,    313,    3.4,    7.6,   0.00,   0.00, 1002.3,   76.4, -999.0
27-09-2022, 00:19:03,    270,    1.0,    7.6,   0.00,   0.00, 1002.3,   76.2, -999.0
27-09-2022, 00:19:13,    271,    0.4,    7.6,   0.00,   0.00, 1002.3,   76.2, -999.0
27-09-2022, 00:19:23,    274,    0.1,    7.6,   0.00,   0.00, 1002.3,   76.1, -999.0
27-09-2022, 00:19:33,      0,    0.4,    7.6,   0.00,   0.00, 1002.3,   76.4, -999.0
27-09-2022, 00:19:43,    312,    0.4,    7.5,   0.00,   0.00, 1002.2,   76.1, -999.0
27-09-2022, 00:19:53,    304,    1.1,    7.6,   0.00,   0.00, 1002.2,   76.2, -999.0
27-09-2022, 00:20:03,    289,    2.5,    7.5,   0.00,   0.00, 1002.3,   76.4, -999.0
27-09-2022, 00:20:13,    327,    1.1,    7.6,   0.00,   0.00, 1002.3,   76.3, -999.0
27-09-2022, 00:20:23,    285,    0.7,    7.6,   0.00,   0.00, 1002.3,   76.3, -999.0
27-09-2022, 00:20:33,    291,    2.0,    7.7,   0.00,   0.00, 1002.3,   76.4, -999.0
27-09-2022, 00:20:43,    293,    0.5,    7.7,   0.00,   0.00, 1002.3,   76.3, -999.0
27-09-2022, 00:20:53,    275,    0.8,    7.6,   0.00,   0.00, 1002.3,   76.3, -999.0
27-09-2022, 00:21:03,    301,    2.7,    7.6,   0.00,   0.00, 1002.3,   76.3, -999.0
27-09-2022, 00:21:12,    268,    1.5,    7.6,   0.00,   0.00, 1002.3,   76.4, -999.0
27-09-2022, 00:21:22,    266,    0.6,    7.7,   0.00,   0.00, 1002.3,   76.3, -999.0
27-09-2022, 00:21:33,    273,    1.5,    7.7,   0.00,   0.00, 1002.3,   76.3, -999.0
27-09-2022, 00:21:42,    285,    0.3,    7.4,   0.00,   0.00, 1002.2,   76.0, -999.0
27-09-2022, 00:21:52,    319,    3.6,    7.6,   0.00,   0.00, 1002.3,   76.3, -999.0
27-09-2022, 00:22:02,    270,    3.8,    7.5,   0.00,   0.00, 1002.3,   76.2, -999.0
27-09-2022, 00:22:12,    292,    4.9,    7.6,   0.00,   0.00, 1002.3,   76.2, -999.0
27-09-2022, 00:22:22,    273,    2.5,    7.6,   0.00,   0.00, 1002.3,   76.1, -999.0
27-09-2022, 00:22:32,    294,    1.2,    7.7,   0.00,   0.00, 1002.3,   76.0, -999.0
27-09-2022, 00:22:42,    249,    1.8,    7.6,   0.00,   0.00, 1002.3,   75.9, -999.0
27-09-2022, 00:22:52,    321,    2.8,    7.7,   0.00,   0.00, 1002.3,   75.9, -999.0
27-09-2022, 00:23:02,    310,    1.1,    7.6,   0.00,   0.00, 1002.3,   75.9, -999.0
27-09-2022, 00:23:12,    291,    0.9,    7.6,   0.00,   0.00, 1002.3,   75.8, -999.0
27-09-2022, 00:23:22,    254,    1.5,    7.6,   0.00,   0.00, 1002.3,   75.9, -999.0
27-09-2022, 00:23:32,    254,    0.0,    7.6,   0.00,   0.00, 1002.2,   75.6, -999.0
27-09-2022, 00:23:42,    289,    1.1,    7.6,   0.00,   0.00, 1002.3,   75.9, -999.0
27-09-2022, 00:23:52,    297,    1.7,    7.7,   0.00,   0.00, 1002.3,   75.9, -999.0
27-09-2022, 00:24:02,    313,    1.5,    7.6,   0.00,   0.00, 1002.3,   75.9, -999.0
27-09-2022, 00:24:12,    326,    1.6,    7.5,   0.00,   0.00, 1002.3,   75.8, -999.0
27-09-2022, 00:24:21,    323,    0.0,    7.5,   0.00,   0.00, 1002.2,   75.6, -999.0
27-09-2022, 00:24:31,    294,    1.7,    7.6,   0.00,   0.00, 1002.3,   75.9, -999.0
27-09-2022, 00:24:42,    300,    3.6,    7.6,   0.00,   0.00, 1002.3,   75.9, -999.0
27-09-2022, 00:24:51,    302,    3.3,    7.6,   0.00,   0.00, 1002.3,   76.0, -999.0
27-09-2022, 00:25:01,    297,    2.0,    7.6,   0.00,   0.00, 1002.3,   76.0, -999.0
27-09-2022, 00:25:11,    292,    3.0,    7.5,   0.00,   0.00, 1002.3,   75.9, -999.0
27-09-2022, 00:25:21,    298,    2.5,    7.5,   0.00,   0.00, 1002.3,   76.0, -999.0
27-09-2022, 00:25:31,    290,    0.4,    7.6,   0.00,   0.00, 1002.2,   75.9, -999.0
27-09-2022, 00:25:41,    291,    0.8,    7.6,   0.00,   0.00, 1002.3,   76.0, -999.0
27-09-2022, 00:25:51,    275,    2.5,    7.6,   0.00,   0.00, 1002.3,   76.0, -999.0
27-09-2022, 00:26:01,    310,    3.9,    7.7,   0.00,   0.00, 1002.2,   76.0, -999.0
27-09-2022, 00:26:11,    305,    2.8,    7.6,   0.00,   0.00, 1002.3,   75.9, -999.0
27-09-2022, 00:26:21,    282,    2.7,    7.6,   0.00,   0.00, 1002.3,   75.9, -999.0
27-09-2022, 00:26:31,    282,    0.8,    7.6,   0.00,   0.00, 1002.2,   75.8, -999.0
27-09-2022, 00:26:41,    300,    1.7,    7.5,   0.00,   0.00, 1002.3,   75.9, -999.0
27-09-2022, 00:26:51,    298,    0.7,    7.5,   0.00,   0.00, 1002.2,   75.9, -999.0
27-09-2022, 00:27:00,    284,    1.7,    7.6,   0.00,   0.00, 1002.2,   75.9, -999.0
27-09-2022, 00:27:11,    281,    2.1,    7.6,   0.00,   0.00, 1002.2,   75.9, -999.0
27-09-2022, 00:27:21,    348,    1.8,    7.5,   0.00,   0.00, 1002.2,   75.8, -999.0
27-09-2022, 00:27:30,    318,    2.7,    7.6,   0.00,   0.00, 1002.2,   75.7, -999.0
27-09-2022, 00:27:40,    310,    1.7,    7.5,   0.00,   0.00, 1002.2,   75.8, -999.0
27-09-2022, 00:27:51,    321,    0.7,    7.6,   0.00,   0.00, 1002.2,   75.9, -999.0
27-09-2022, 00:28:00,    327,    1.5,    7.6,   0.00,   0.00, 1002.2,   75.8, -999.0
27-09-2022, 00:28:10,    336,    0.7,    7.5,   0.00,   0.00, 1002.2,   75.7, -999.0
27-09-2022, 00:28:21,    337,    1.6,    7.5,   0.00,   0.00, 1002.2,   75.9, -999.0
27-09-2022, 00:28:30,    324,    3.1,    7.6,   0.00,   0.00, 1002.2,   75.9, -999.0
27-09-2022, 00:28:40,    296,    1.9,    7.6,   0.00,   0.00, 1002.2,   75.9, -999.0
27-09-2022, 00:28:50,    339,    2.4,    7.5,   0.00,   0.00, 1002.3,   75.9, -999.0
27-09-2022, 00:29:00,    342,    2.1,    7.5,   0.00,   0.00, 1002.3,   76.0, -999.0
27-09-2022, 00:29:10,    309,    1.5,    7.5,   0.00,   0.00, 1002.3,   76.0, -999.0
27-09-2022, 00:29:20,    308,    0.1,    7.5,   0.00,   0.00, 1002.2,   75.8, -999.0
27-09-2022, 00:29:30,    326,    2.0,    7.5,   0.00,   0.00, 1002.2,   75.8, -999.0
27-09-2022, 00:29:40,    301,    1.4,    7.5,   0.00,   0.00, 1002.3,   76.0, -999.0
27-09-2022, 00:29:50,    281,    0.8,    7.5,   0.00,   0.00, 1002.2,   76.0, -999.0
27-09-2022, 00:30:00,    264,    0.6,    7.5,   0.00,   0.00, 1002.2,   76.0, -999.0
27-09-2022, 00:30:09,    265,    0.1,    7.4,   0.00,   0.00, 1002.1,   75.7, -999.0
27-09-2022, 00:30:20,    281,    1.6,    7.4,   0.00,   0.00, 1002.2,   76.0, -999.0
27-09-2022, 00:30:30,    292,    1.6,    7.5,   0.00,   0.00, 1002.3,   76.0, -999.0
27-09-2022, 00:30:39,    325,    1.3,    7.5,   0.00,   0.00, 1002.3,   75.9, -999.0
27-09-2022, 00:30:50,    333,    1.4,    7.4,   0.00,   0.00, 1002.2,   76.0, -999.0
27-09-2022, 00:31:00,    290,    0.6,    7.5,   0.00,   0.00, 1002.3,   76.0, -999.0
27-09-2022, 00:31:09,    238,    1.2,    7.5,   0.00,   0.00, 1002.3,   75.9, -999.0
27-09-2022, 00:31:19,    259,    2.1,    7.5,   0.00,   0.00, 1002.2,   75.8, -999.0
27-09-2022, 00:31:30,    323,    1.5,    7.5,   0.00,   0.00, 1002.3,   75.6, -999.0
27-09-2022, 00:31:39,    310,    2.8,    7.5,   0.00,   0.00, 1002.3,   75.7, -999.0
27-09-2022, 00:31:49,    308,    1.3,    7.5,   0.00,   0.00, 1002.3,   75.6, -999.0
27-09-2022, 00:31:59,    307,    0.1,    7.4,   0.00,   0.00, 1002.2,   75.5, -999.0
27-09-2022, 00:32:09,    307,    0.2,    7.4,   0.00,   0.00, 1002.2,   75.4, -999.0
27-09-2022, 00:32:19,    307,    0.4,    7.4,   0.00,   0.00, 1002.2,   75.6, -999.0
27-09-2022, 00:32:29,    295,    2.7,    7.5,   0.00,   0.00, 1002.3,   75.7, -999.0
27-09-2022, 00:32:39,    291,    4.2,    7.5,   0.00,   0.00, 1002.3,   75.6, -999.0
27-09-2022, 00:32:49,    275,    2.0,    7.5,   0.00,   0.00, 1002.3,   75.7, -999.0
27-09-2022, 00:32:59,    269,    0.5,    7.5,   0.00,   0.00, 1002.3,   75.6, -999.0
27-09-2022, 00:33:09,    304,    1.1,    7.5,   0.00,   0.00, 1002.2,   75.6, -999.0
27-09-2022, 00:33:19,    306,    1.3,    7.4,   0.00,   0.00, 1002.2,   75.5, -999.0
27-09-2022, 00:33:29,    307,    1.7,    7.5,   0.00,   0.00, 1002.2,   75.5, -999.0
27-09-2022, 00:33:39,    294,    1.8,    7.5,   0.00,   0.00, 1002.2,   75.7, -999.0
27-09-2022, 00:33:48,    276,    1.9,    7.5,   0.00,   0.00, 1002.3,   75.6, -999.0
27-09-2022, 00:33:59,    303,    2.6,    7.5,   0.00,   0.00, 1002.3,   75.5, -999.0
27-09-2022, 00:34:09,    312,    1.0,    7.5,   0.00,   0.00, 1002.3,   75.6, -999.0
27-09-2022, 00:34:18,    331,    2.6,    7.5,   0.00,   0.00, 1002.3,   75.6, -999.0
27-09-2022, 00:34:28,    309,    4.0,    7.5,   0.00,   0.00, 1002.3,   75.6, -999.0
27-09-2022, 00:34:39,    310,    2.7,    7.5,   0.00,   0.00, 1002.3,   75.6, -999.0
27-09-2022, 00:34:48,    280,    1.4,    7.5,   0.00,   0.00, 1002.3,   75.6, -999.0
27-09-2022, 00:34:58,    281,    0.9,    7.5,   0.00,   0.00, 1002.3,   75.6, -999.0
27-09-2022, 00:35:08,    252,    1.0,    7.5,   0.00,   0.00, 1002.2,   75.6, -999.0
27-09-2022, 00:35:18,    287,    1.1,    7.5,   0.00,   0.00, 1002.2,   75.5, -999.0
27-09-2022, 00:35:28,    286,    2.2,    7.5,   0.00,   0.00, 1002.3,   75.5, -999.0
27-09-2022, 00:35:38,    283,    2.4,    7.5,   0.00,   0.00, 1002.3,   75.5, -999.0
27-09-2022, 00:35:48,    300,    2.1,    7.5,   0.00,   0.00, 1002.3,   75.4, -999.0
27-09-2022, 00:35:58,    303,    1.4,    7.5,   0.00,   0.00, 1002.3,   75.4, -999.0
27-09-2022, 00:36:08,    303,    0.6,    7.5,   0.00,   0.00, 1002.3,   75.4, -999.0
27-09-2022, 00:36:18,    303,    0.1,    7.5,   0.00,   0.00, 1002.2,   75.1, -999.0
27-09-2022, 00:36:28,    303,    0.7,    7.5,   0.00,   0.00, 1002.3,   75.5, -999.0
27-09-2022, 00:36:38,    275,    0.4,    7.5,   0.00,   0.00, 1002.3,   75.3, -999.0
27-09-2022, 00:36:48,    281,    0.9,    7.5,   0.00,   0.00, 1002.3,   75.5, -999.0
27-09-2022, 00:36:57,    284,    0.9,    7.5,   0.00,   0.00, 1002.3,   75.4, -999.0
27-09-2022, 00:37:08,    279,    0.5,    7.5,   0.00,   0.00, 1002.3,   75.3, -999.0
27-09-2022, 00:37:18,    309,    1.8,    7.5,   0.00,   0.00, 1002.3,   75.4, -999.0
27-09-2022, 00:37:27,    308,    1.1,    7.6,   0.00,   0.00, 1002.3,   75.4, -999.0
27-09-2022, 00:37:37,    298,    1.1,    7.5,   0.00,   0.00, 1002.3,   75.4, -999.0
27-09-2022, 00:37:48,    339,    0.6,    7.5,   0.00,   0.00, 1002.3,   75.5, -999.0
27-09-2022, 00:37:57,    321,    2.6,    7.5,   0.00,   0.00, 1002.4,   75.5, -999.0
27-09-2022, 00:38:07,    319,    0.7,    7.5,   0.00,   0.00, 1002.3,   75.4, -999.0
27-09-2022, 00:38:17,    229,    0.0,    7.4,   0.00,   0.00, 1002.2,   75.3, -999.0
27-09-2022, 00:38:27,    322,    1.2,    7.3,   0.00,   0.00, 1002.3,   75.3, -999.0
27-09-2022, 00:38:37,    285,    1.7,    7.5,   0.00,   0.00, 1002.3,   75.4, -999.0
27-09-2022, 00:38:47,    302,    1.4,    7.5,   0.00,   0.00, 1002.3,   75.4, -999.0
27-09-2022, 00:38:57,    287,    4.3,    7.5,   0.00,   0.00, 1002.3,   75.4, -999.0
27-09-2022, 00:39:07,    280,    2.5,    7.5,   0.00,   0.00, 1002.3,   75.4, -999.0
27-09-2022, 00:39:17,    301,    2.5,    7.5,   0.00,   0.00, 1002.4,   75.4, -999.0
27-09-2022, 00:39:27,    306,    1.5,    7.4,   0.00,   0.00, 1002.3,   75.3, -999.0
27-09-2022, 00:39:37,    306,    0.3,    7.4,   0.00,   0.00, 1002.3,   75.2, -999.0
27-09-2022, 00:39:47,    310,    0.7,    7.5,   0.00,   0.00, 1002.3,   75.4, -999.0
27-09-2022, 00:39:57,    279,    0.5,    7.4,   0.00,   0.00, 1002.3,   75.2, -999.0
27-09-2022, 00:40:06,    279,    0.9,    7.4,   0.00,   0.00, 1002.4,   75.3, -999.0
27-09-2022, 00:40:17,    328,    0.9,    7.4,   0.00,   0.00, 1002.4,   75.3, -999.0
27-09-2022, 00:40:27,    288,    1.9,    7.5,   0.00,   0.00, 1002.4,   75.3, -999.0
27-09-2022, 00:40:36,    295,    1.2,    7.4,   0.00,   0.00, 1002.4,   75.3, -999.0
27-09-2022, 00:40:47,    306,    2.4,    7.5,   0.00,   0.00, 1002.4,   75.3, -999.0
27-09-2022, 00:40:57,    301,    4.1,    7.5,   0.00,   0.00, 1002.3,   75.4, -999.0
27-09-2022, 00:41:06,    273,    2.3,    7.5,   0.00,   0.00, 1002.3,   75.3, -999.0
27-09-2022, 00:41:16,    287,    0.7,    7.5,   0.00,   0.00, 1002.3,   75.3, -999.0
27-09-2022, 00:41:26,    290,    0.8,    7.5,   0.00,   0.00, 1002.4,   75.3, -999.0
27-09-2022, 00:41:36,    289,    0.1,    7.4,   0.00,   0.00, 1002.3,   75.2, -999.0
27-09-2022, 00:41:46,    289,    0.2,    7.4,   0.00,   0.00, 1002.3,   75.3, -999.0
27-09-2022, 00:41:56,    295,    0.0,    7.4,   0.00,   0.00, 1002.2,   75.0, -999.0
27-09-2022, 00:42:06,    299,    0.2,    7.4,   0.00,   0.00, 1002.3,   75.2, -999.0
27-09-2022, 00:42:16,    320,    0.7,    7.4,   0.00,   0.00, 1002.3,   75.3, -999.0
27-09-2022, 00:42:26,    307,    2.2,    7.4,   0.00,   0.00, 1002.4,   75.4, -999.0
27-09-2022, 00:42:36,    340,    1.0,    7.4,   0.00,   0.00, 1002.4,   75.4, -999.0
27-09-2022, 00:42:46,    339,    0.0,    7.3,   0.00,   0.00, 1002.2,   75.0, -999.0
27-09-2022, 00:42:56,    226,    0.2,    7.3,   0.00,   0.00, 1002.3,   75.3, -999.0
27-09-2022, 00:43:06,    226,    0.5,    7.4,   0.00,   0.00, 1002.3,   75.4, -999.0
27-09-2022, 00:43:16,    231,    0.0,    7.3,   0.00,   0.00, 1002.2,   75.0, -999.0
27-09-2022, 00:43:26,    358,    0.0,    7.3,   0.00,   0.00, 1002.2,   75.1, -999.0
27-09-2022, 00:43:36,    324,    1.9,    7.4,   0.00,   0.00, 1002.4,   75.5, -999.0
27-09-2022, 00:43:45,    300,    2.5,    7.3,   0.00,   0.00, 1002.4,   75.4, -999.0
27-09-2022, 00:43:56,    276,    1.7,    7.4,   0.00,   0.00, 1002.4,   75.5, -999.0
27-09-2022, 00:44:06,    269,    2.9,    7.4,   0.00,   0.00, 1002.4,   75.5, -999.0
27-09-2022, 00:44:15,    301,    3.6,    7.4,   0.00,   0.00, 1002.4,   75.5, -999.0
27-09-2022, 00:44:25,    271,    3.1,    7.4,   0.00,   0.00, 1002.4,   75.4, -999.0
27-09-2022, 00:44:35,    301,    2.4,    7.4,   0.00,   0.00, 1002.4,   75.4, -999.0
27-09-2022, 00:44:45,    306,    1.5,    7.4,   0.00,   0.00, 1002.4,   75.4, -999.0
27-09-2022, 00:44:55,    311,    1.6,    7.5,   0.00,   0.00, 1002.5,   75.4, -999.0
27-09-2022, 00:45:05,    322,    2.9,    7.4,   0.00,   0.00, 1002.5,   75.4, -999.0
27-09-2022, 00:45:15,    317,    1.9,    7.4,   0.00,   0.00, 1002.5,   75.4, -999.0
27-09-2022, 00:45:25,    321,    1.9,    7.4,   0.00,   0.00, 1002.5,   75.5, -999.0
27-09-2022, 00:45:35,    318,    1.6,    7.4,   0.00,   0.00, 1002.4,   75.4, -999.0
27-09-2022, 00:45:45,    315,    1.2,    7.4,   0.00,   0.00, 1002.5,   75.4, -999.0
27-09-2022, 00:45:55,    291,    0.9,    7.3,   0.00,   0.00, 1002.5,   75.4, -999.0
27-09-2022, 00:46:05,    292,    0.8,    7.4,   0.00,   0.00, 1002.4,   75.5, -999.0
27-09-2022, 00:46:15,    292,    1.1,    7.3,   0.00,   0.00, 1002.4,   75.4, -999.0
27-09-2022, 00:46:25,    292,    0.0,    7.3,   0.00,   0.00, 1002.3,   75.1, -999.0
27-09-2022, 00:46:35,    294,    0.2,    7.2,   0.00,   0.00, 1002.4,   75.3, -999.0
27-09-2022, 00:46:45,    294,    0.8,    7.3,   0.00,   0.00, 1002.4,   75.6, -999.0